FW1691 Weather Reports


time (UTC)temp
F
wind
direction
speed
knots
gust
knots
rain 1hr
in
rain 24hr
in
rain mn
in
humidity
%
barometer
mb
20260507185512 51 321 6.1 11.3 0.00 0.00 0.00 38 1011.2
20260507185012 51 340 4.3 13.9 0.00 0.00 0.00 40 1011.2
20260507184532 51 360 5.2 13.9 0.00 0.00 0.00 41 1011.0
20260507184014 51 253 4.3 17.4 0.00 0.00 0.00 40 1011.0
20260507183512 51 296 3.5 18.2 0.00 0.00 0.00 37 1011.1
20260507183034 51 329 7.8 18.2 0.00 0.00 0.00 40 1011.1
20260507182513 51 250 1.7 14.8 0.00 0.00 0.00 40 1011.2
20260507182013 51 264 1.7 14.8 0.00 0.00 0.00 42 1011.2
20260507181532 50 46 6.1 14.8 0.00 0.00 0.00 38 1011.2
20260507181020 50 325 8.7 14.8 0.00 0.00 0.00 38 1011.3
20260507180514 49 338 1.7 8.7 0.00 0.00 0.00 41 1011.3
20260507180038 49 321 3.5 13.0 0.00 0.00 0.00 40 1011.4
20260507175515 49 346 6.1 13.0 0.00 0.00 0.00 40 1011.5
20260507175017 49 314 4.3 13.0 0.00 0.00 0.00 39 1011.5
20260507174540 49 333 2.6 11.3 0.00 0.00 0.00 43 1011.5
20260507174015 49 17 6.1 11.3 0.00 0.00 0.00 39 1011.7
20260507173514 49 338 5.2 11.3 0.00 0.00 0.00 39 1011.6
20260507173052 49 321 5.2 15.6 0.00 0.00 0.00 39 1011.7
20260507172513 49 22 6.1 15.6 0.00 0.00 0.00 41 1011.6
20260507172013 49 32 5.2 11.3 0.00 0.00 0.00 45 1011.7
20260507171536 48 49 4.3 13.0 0.00 0.00 0.00 44 1011.8
20260507171014 48 32 7.0 13.0 0.00 0.00 0.00 41 1011.7
20260507170516 49 15 4.3 12.2 0.00 0.00 0.00 45 1011.8
20260507170038 48 326 5.2 12.2 0.00 0.00 0.00 44 1011.8
20260507165516 49 5 5.2 12.2 0.00 0.00 0.00 40 1011.7
20260507165015 48 46 5.2 17.4 0.00 0.00 0.00 43 1011.8
20260507164535 48 346 6.1 17.4 0.00 0.00 0.00 42 1011.9
20260507164013 48 34 6.1 14.8 0.00 0.00 0.00 42 1011.9
20260507163516 47 53 3.5 13.9 0.00 0.00 0.00 43 1011.9
20260507163032 47 351 4.3 13.9 0.00 0.00 0.00 46 1012.1
20260507162520 47 26 7.0 13.9 0.00 0.00 0.00 43 1011.9
20260507162016 46 331 4.3 13.9 0.00 0.00 0.00 43 1012.1
20260507161540 47 355 6.1 12.2 0.00 0.00 0.00 49 1012.0
20260507161013 47 12 6.1 11.3 0.00 0.00 0.00 49 1011.9
20260507160515 47 292 5.2 10.4 0.00 0.00 0.00 49 1011.9
20260507160035 46 260 3.5 8.7 0.00 0.00 0.00 51 1012.0
20260507155516 46 279 5.2 10.4 0.00 0.00 0.00 50 1012.1
20260507155016 46 218 4.3 11.3 0.00 0.00 0.00 50 1012.3
20260507154534 46 266 7.0 12.2 0.00 0.00 0.00 52 1012.1
20260507154012 46 259 6.1 12.2 0.00 0.00 0.00 52 1012.2
20260507153515 46 283 5.2 10.4 0.00 0.00 0.00 53 1012.2
20260507153033 46 305 3.5 8.7 0.00 0.00 0.00 51 1012.3
20260507152516 46 254 3.5 8.7 0.00 0.00 0.00 57 1012.3
20260507152022 46 9 4.3 8.7 0.00 0.00 0.00 52 1012.3
20260507151534 45 340 4.3 9.6 0.00 0.00 0.00 54 1012.3
20260507151015 45 240 2.6 10.4 0.00 0.00 0.00 54 1012.3
20260507150518 45 278 5.2 10.4 0.00 0.00 0.00 55 1012.4
20260507150038 45 249 5.2 8.7 0.00 0.00 0.00 53 1012.5
20260507145513 45 212 2.6 8.7 0.00 0.00 0.00 57 1012.4
20260507145023 45 348 4.3 8.7 0.00 0.00 0.00 58 1012.5
20260507144532 44 215 2.6 8.7 0.00 0.00 0.00 55 1012.6
20260507144014 44 314 4.3 8.7 0.00 0.00 0.00 56 1012.8
20260507143515 44 323 2.6 8.7 0.00 0.00 0.00 55 1012.7
20260507143038 44 325 2.6 8.7 0.00 0.00 0.00 56 1012.7
20260507142515 44 315 2.6 8.7 0.00 0.00 0.00 56 1012.9
20260507142025 44 301 1.7 7.0 0.00 0.00 0.00 57 1012.9
20260507141546 44 340 2.6 7.0 0.00 0.00 0.00 59 1013.0
20260507141014 44 342 1.7 4.3 0.00 0.00 0.00 60 1013.0
20260507140516 44 347 0.9 4.3 0.00 0.00 0.00 60 1013.0
20260507140034 43 355 1.7 4.3 0.00 0.00 0.00 59 1013.0
20260507135515 43 355 1.7 7.8 0.00 0.00 0.00 62 1012.9
20260507135015 42 288 1.7 7.8 0.00 0.00 0.00 63 1013.0
20260507134535 42 294 2.6 6.1 0.00 0.00 0.00 64 1013.0
20260507134014 42 317 2.6 4.3 0.00 0.00 0.00 66 1013.0
20260507133514 42 327 1.7 3.5 0.00 0.00 0.00 64 1013.0
20260507133057 41 327 1.7 4.3 0.00 0.00 0.00 64 1013.0
20260507132520 41 313 1.7 4.3 0.00 0.00 0.00 65 1013.0
20260507132012 41 304 0.9 3.5 0.00 0.00 0.00 67 1013.0
20260507131538 40 304 1.7 3.5 0.00 0.00 0.00 69 1013.2
20260507131015 40 303 1.7 3.5 0.00 0.00 0.00 70 1013.3
20260507130515 39 288 1.7 3.5 0.00 0.00 0.00 71 1013.4
20260507130036 39 284 0.9 3.5 0.00 0.00 0.00 74 1013.4
20260507125514 38 284 0.9 5.2 0.00 0.00 0.00 74 1013.4
20260507125013 38 284 1.7 5.2 0.00 0.00 0.00 75 1013.4
20260507124534 38 284 1.7 3.5 0.00 0.00 0.00 73 1013.4
20260507124013 38 284 0.9 3.5 0.00 0.00 0.00 72 1013.3
20260507123518 38 284 1.7 3.5 0.00 0.00 0.00 72 1013.3
20260507123038 38 284 1.7 3.5 0.00 0.00 0.00 73 1013.4
20260507122514 38 285 1.7 3.5 0.00 0.00 0.00 73 1013.3
20260507122014 38 285 0.9 2.6 0.00 0.00 0.00 74 1013.2
20260507121534 37 285 0.9 2.6 0.00 0.00 0.00 74 1013.2
20260507121015 37 285 1.7 2.6 0.00 0.00 0.00 73 1013.2
20260507120515 36 285 0.0 1.7 0.00 0.00 0.00 72 1013.1
20260507120035 36 0 0.0 1.7 0.00 0.00 0.00 71 1013.1
20260507115515 36 0 0.0 1.7 0.00 0.00 0.00 70 1013.1
20260507115013 36 285 0.9 2.6 0.00 0.00 0.00 70 1013.1
20260507114537 36 285 0.0 3.5 0.00 0.00 0.00 70 1013.1
20260507114014 36 285 1.7 3.5 0.00 0.00 0.00 69 1013.0
20260507113513 36 285 1.7 3.5 0.00 0.00 0.00 70 1013.0
20260507113036 36 285 1.7 2.6 0.00 0.00 0.00 70 1013.0
20260507112514 36 287 0.9 2.6 0.00 0.00 0.00 70 1012.9
20260507112018 36 287 1.7 2.6 0.00 0.00 0.00 70 1012.9
20260507111532 36 287 0.9 3.5 0.00 0.00 0.00 70 1012.8
20260507111013 36 311 0.9 3.5 0.00 0.00 0.00 70 1012.9
20260507110513 36 311 0.9 3.5 0.00 0.00 0.00 69 1012.9
20260507110039 36 311 0.9 2.6 0.00 0.00 0.00 70 1012.8
20260507105514 36 311 0.0 2.6 0.00 0.00 0.00 70 1012.8
20260507105015 36 0 0.0 2.6 0.00 0.00 0.00 71 1012.8
20260507104534 36 0 0.9 2.6 0.00 0.00 0.00 71 1012.8
20260507104014 35 311 0.0 1.7 0.00 0.00 0.00 71 1012.8
20260507103513 36 0 0.0 1.7 0.00 0.00 0.00 71 1012.7
20260507103039 36 311 0.0 1.7 0.00 0.00 0.00 72 1012.8
20260507102515 36 0 0.0 0.9 0.00 0.00 0.00 72 1012.8
20260507102017 36 0 0.0 1.7 0.00 0.00 0.00 72 1012.9
20260507101538 36 0 0.0 1.7 0.00 0.00 0.00 72 1012.9
20260507101015 36 0 0.0 0.9 0.00 0.00 0.00 73 1012.8
20260507100514 36 0 0.0 0.9 0.00 0.00 0.00 73 1012.9
20260507100036 36 0 0.0 0.9 0.00 0.00 0.00 73 1012.9
20260507095516 36 0 0.0 1.7 0.00 0.00 0.00 73 1013.0
20260507095014 36 0 0.0 1.7 0.00 0.00 0.00 73 1013.0
20260507094537 36 311 0.0 1.7 0.00 0.00 0.00 73 1013.0
20260507094020 35 0 0.9 1.7 0.00 0.00 0.00 73 1013.1
20260507093515 35 0 0.0 0.9 0.00 0.00 0.00 74 1013.1
20260507093032 35 311 0.0 0.9 0.00 0.00 0.00 74 1013.0
20260507092513 36 0 0.0 1.7 0.00 0.00 0.00 73 1013.2
20260507092013 36 0 0.0 1.7 0.00 0.00 0.00 73 1013.1
20260507091535 36 0 0.0 1.7 0.00 0.00 0.00 72 1013.0
20260507091015 36 0 0.0 1.7 0.00 0.00 0.00 72 1013.0
20260507090513 36 0 0.0 2.6 0.00 0.00 0.00 71 1013.0
20260507090030 36 0 0.0 2.6 0.00 0.00 0.00 71 1013.1
20260507085515 37 311 0.0 2.6 0.00 0.00 0.00 71 1013.2
20260507085013 37 0 0.9 2.6 0.00 0.00 0.00 71 1013.2
20260507084538 37 311 0.0 1.7 0.00 0.00 0.00 71 1013.3
20260507084012 37 0 0.9 2.6 0.00 0.00 0.00 71 1013.2
20260507083516 37 311 0.9 2.6 0.00 0.00 0.00 72 1013.3
20260507083032 37 311 0.0 2.6 0.00 0.00 0.00 71 1013.3
20260507082514 37 311 0.9 2.6 0.00 0.00 0.00 71 1013.3
20260507082014 37 311 0.9 2.6 0.00 0.00 0.00 72 1013.3
20260507081538 37 311 0.9 2.6 0.00 0.00 0.00 72 1013.3
20260507081013 37 311 0.9 2.6 0.00 0.00 0.00 72 1013.2
20260507080514 37 311 1.7 2.6 0.00 0.00 0.00 72 1013.3
20260507080032 37 311 0.9 1.7 0.00 0.00 0.00 71 1013.2
20260507075515 37 0 0.0 1.7 0.00 0.00 0.00 70 1013.3
20260507075014 37 311 0.9 1.7 0.00 0.00 0.00 70 1013.3
20260507074534 37 311 0.9 1.7 0.00 0.00 0.00 70 1013.3
20260507074013 37 311 0.9 2.6 0.00 0.00 0.00 70 1013.3
20260507073515 38 311 0.9 3.5 0.00 0.00 0.00 70 1013.3
20260507073032 38 311 0.9 3.5 0.00 0.00 0.00 70 1013.4
20260507072513 38 311 1.7 3.5 0.00 0.00 0.00 69 1013.5
20260507072013 38 311 1.7 3.5 0.00 0.00 0.00 69 1013.5
20260507071535 38 311 1.7 3.5 0.00 0.00 0.00 70 1013.6
20260507071013 38 311 1.7 3.5 0.00 0.00 0.00 69 1013.7
20260507070515 38 312 0.9 2.6 0.00 0.00 0.00 69 1013.5
20260507070045 38 312 0.9 3.5 0.00 0.00 0.00 68 1013.8
20260507065514 38 312 1.7 3.5 0.00 0.00 0.00 69 1013.8
20260507065016 38 0 0.9 2.6 0.00 0.00 0.00 68 1013.7
20260507064535 38 312 0.9 2.6 0.00 0.00 0.00 67 1013.7
20260507064015 38 312 0.9 2.6 0.00 0.00 0.00 67 1013.8
20260507063513 39 312 0.9 2.6 0.00 0.00 0.00 67 1013.9
20260507063035 39 312 0.0 2.6 0.00 0.00 0.00 66 1013.8
20260507062511 39 312 0.0 3.5 0.00 0.00 0.00 66 1013.8
20260507062016 39 312 0.9 3.5 0.00 0.00 0.00 65 1013.8
20260507061532 39 316 0.9 2.6 0.00 0.00 0.00 67 1013.9
20260507061020 39 316 0.9 3.5 0.00 0.00 0.00 67 1014.0
20260507060515 39 316 0.9 3.5 0.00 0.00 0.00 67 1014.0
20260507060034 39 316 0.9 2.6 0.00 0.00 0.00 67 1014.1
20260507055513 39 316 0.9 3.5 0.00 0.00 0.00 68 1014.1
20260507055014 39 316 0.9 3.5 0.00 0.00 0.00 68 1014.2
20260507054533 38 316 0.9 2.6 0.00 0.00 0.00 69 1014.2
20260507054013 38 316 0.9 2.6 0.00 0.00 0.00 68 1014.2
20260507053514 38 316 0.0 1.7 0.00 0.00 0.00 68 1014.0
20260507053032 38 316 0.0 2.6 0.00 0.00 0.00 69 1014.1
20260507052513 38 0 0.0 2.6 0.00 0.00 0.00 70 1014.0
20260507052016 38 0 0.0 1.7 0.00 0.00 0.00 70 1014.1
20260507051532 39 0 0.0 1.7 0.00 0.00 0.00 70 1014.2
20260507051015 39 316 0.0 2.6 0.00 0.00 0.00 70 1014.1
20260507050514 39 316 0.9 2.6 0.00 0.00 0.00 70 1014.3
20260507050035 39 316 0.0 2.6 0.00 0.00 0.00 69 1014.3
20260507045515 39 316 0.9 2.6 0.00 0.00 0.00 69 1014.4
20260507045015 39 316 0.9 2.6 0.00 0.00 0.00 68 1014.3
20260507044532 39 316 0.9 2.6 0.00 0.00 0.00 67 1014.3
20260507044015 39 316 0.0 2.6 0.00 0.00 0.00 66 1014.3
20260507043514 39 0 0.9 2.6 0.00 0.00 0.00 66 1014.3
20260507043031 39 316 0.9 2.6 0.00 0.00 0.00 66 1014.4
20260507042513 39 316 0.9 2.6 0.00 0.00 0.00 65 1014.4
20260507042021 39 316 0.9 2.6 0.00 0.00 0.00 65 1014.4
20260507041530 40 316 0.9 2.6 0.00 0.00 0.00 65 1014.4
20260507041015 40 316 0.9 2.6 0.00 0.00 0.00 63 1014.5
20260507040514 40 316 0.9 2.6 0.00 0.00 0.00 62 1014.6
20260507040041 40 316 0.9 2.6 0.00 0.00 0.00 62 1014.6
20260507035518 40 316 0.9 2.6 0.00 0.00 0.00 61 1014.6
20260507035014 40 316 0.9 2.6 0.00 0.00 0.00 61 1014.6
20260507034541 40 316 0.9 2.6 0.00 0.00 0.00 61 1014.7
20260507034020 40 316 0.9 2.6 0.00 0.00 0.00 61 1014.7
20260507033513 40 0 0.0 1.7 0.00 0.00 0.00 61 1014.6
20260507033044 40 316 0.0 1.7 0.00 0.00 0.00 59 1014.7
20260507032516 41 316 0.0 1.7 0.00 0.00 0.00 59 1014.8
20260507032017 41 316 0.9 1.7 0.00 0.00 0.00 59 1014.8
20260507031545 41 316 0.9 1.7 0.00 0.00 0.00 59 1014.9
20260507031016 41 316 0.9 1.7 0.00 0.00 0.00 59 1014.9
20260507030516 41 316 0.9 1.7 0.00 0.00 0.00 59 1014.9
20260507030033 41 316 0.9 1.7 0.00 0.00 0.00 59 1014.9
20260507025516 40 316 0.9 1.7 0.00 0.00 0.00 59 1014.9
20260507025018 40 316 0.9 1.7 0.00 0.00 0.00 60 1015.0
20260507024536 40 316 0.0 0.9 0.00 0.00 0.00 59 1015.0
20260507024013 40 0 0.0 0.0 0.00 0.00 0.00 59 1015.0
20260507023515 40 0 0.0 0.0 0.00 0.00 0.00 59 1015.0
20260507023034 40 0 0.0 0.0 0.00 0.00 0.00 59 1015.1
20260507022515 40 0 0.0 0.9 0.00 0.00 0.00 59 1015.1
20260507022014 40 0 0.0 0.9 0.00 0.00 0.00 59 1015.1
20260507021536 41 0 0.0 1.7 0.00 0.00 0.00 59 1015.2
20260507021015 41 0 0.0 2.6 0.00 0.00 0.00 59 1015.1
20260507020515 41 316 0.9 2.6 0.00 0.00 0.00 60 1015.2
20260507020034 41 316 0.9 2.6 0.00 0.00 0.00 60 1015.3
20260507015516 41 0 0.0 2.6 0.00 0.00 0.00 60 1015.2
20260507015016 41 316 1.7 2.6 0.00 0.00 0.00 59 1015.2
20260507014542 41 316 0.9 2.6 0.00 0.00 0.00 59 1015.3
20260507014016 41 316 0.9 2.6 0.00 0.00 0.00 59 1015.3
20260507013513 41 316 0.9 3.5 0.00 0.00 0.00 59 1015.3
20260507013039 41 316 0.9 5.2 0.00 0.00 0.00 60 1015.2
20260507012515 41 311 0.9 5.2 0.00 0.00 0.00 59 1015.3
20260507012016 41 311 1.7 7.0 0.00 0.00 0.00 58 1015.2
20260507011539 41 319 2.6 7.0 0.00 0.00 0.00 59 1015.2
20260507011013 41 294 1.7 5.2 0.00 0.00 0.00 59 1015.2
20260507010516 41 350 1.7 5.2 0.00 0.00 0.00 60 1015.2
20260507010041 41 315 0.9 4.3 0.00 0.00 0.00 59 1015.1
20260507005514 41 325 0.9 7.0 0.00 0.00 0.00 59 1015.1
20260507005019 41 330 1.7 7.8 0.00 0.00 0.00 58 1015.1
20260507004532 41 336 4.3 7.8 0.00 0.00 0.00 58 1015.2
20260507004016 41 304 3.5 7.8 0.00 0.00 0.00 58 1015.2
20260507003515 42 317 2.6 7.8 0.00 0.00 0.00 57 1015.2
20260507003033 42 292 3.5 9.6 0.00 0.00 0.00 57 1015.2
20260507002515 42 299 5.2 10.4 0.00 0.00 0.00 56 1015.3
20260507002016 42 279 6.1 10.4 0.00 0.00 0.00 57 1015.3
20260507001602 42 303 4.3 12.2 0.00 0.00 0.00 56 1015.3
20260507001012 42 296 6.1 13.0 0.00 0.00 0.00 56 1015.2
20260507000514 42 318 5.2 13.0 0.00 0.00 0.00 57 1015.3
20260507000035 42 291 2.6 8.7 0.00 0.00 0.00 57 1015.3
20260506235516 42 310 3.5 8.7 0.00 0.00 0.00 57 1015.3
20260506235015 42 290 4.3 10.4 0.00 0.00 0.00 56 1015.1
20260506234534 42 304 4.3 10.4 0.00 0.00 0.00 56 1015.2
20260506234013 42 277 6.1 11.3 0.00 0.00 0.00 55 1015.1
20260506233513 43 327 7.0 12.2 0.00 0.00 0.00 56 1015.1
20260506233032 42 274 5.2 12.2 0.00 0.00 0.00 56 1015.2
20260506232513 42 273 6.1 11.3 0.00 0.00 0.00 55 1015.2
20260506232013 43 339 3.5 10.4 0.00 0.00 0.00 56 1015.3
20260506231535 43 302 5.2 10.4 0.00 0.00 0.00 56 1015.3
20260506231013 43 278 4.3 9.6 0.00 0.00 0.00 57 1015.3
20260506230515 43 355 5.2 12.2 0.00 0.00 0.00 55 1015.2
20260506230036 42 281 7.0 12.2 0.00 0.00 0.00 55 1015.3
20260506225516 42 288 5.2 10.4 0.00 0.00 0.00 56 1015.3
20260506225023 42 337 4.3 10.4 0.00 0.00 0.00 56 1015.4
20260506224534 42 316 3.5 10.4 0.00 0.00 0.00 57 1015.4
20260506224014 43 338 5.2 10.4 0.00 0.00 0.00 56 1015.4
20260506223515 43 313 2.6 9.6 0.00 0.00 0.00 55 1015.4
20260506223033 43 271 5.2 9.6 0.00 0.00 0.00 56 1015.4
20260506222514 43 302 4.3 9.6 0.00 0.00 0.00 55 1015.4
20260506222016 43 302 2.6 8.7 0.00 0.00 0.00 56 1015.5
20260506221534 43 313 2.6 8.7 0.00 0.00 0.00 57 1015.5
20260506221013 42 274 3.5 7.8 0.00 0.00 0.00 57 1015.5
20260506220513 42 302 4.3 7.8 0.00 0.00 0.00 58 1015.7
20260506220032 42 332 4.3 8.7 0.00 0.00 0.00 57 1015.6
20260506215513 42 250 3.5 8.7 0.00 0.00 0.00 56 1015.7
20260506215015 42 276 4.3 9.6 0.00 0.00 0.00 56 1015.6
20260506214533 42 250 5.2 9.6 0.00 0.00 0.00 56 1015.6
20260506214018 42 279 6.1 9.6 0.00 0.00 0.00 56 1015.7
20260506213517 42 266 4.3 12.2 0.00 0.00 0.00 56 1015.7
20260506213032 42 305 7.0 12.2 0.00 0.00 0.00 55 1015.8
20260506212515 42 291 4.3 9.6 0.00 0.00 0.00 56 1015.8
20260506212017 42 246 5.2 8.7 0.00 0.00 0.00 55 1015.7
20260506211531 42 285 5.2 8.7 0.00 0.00 0.00 55 1015.8
20260506211014 42 261 5.2 8.7 0.00 0.00 0.00 56 1015.7
20260506210514 42 261 4.3 13.9 0.00 0.00 0.00 58 1015.7
20260506210035 42 282 4.3 13.9 0.00 0.00 0.00 56 1015.7
20260506205513 42 265 6.1 13.9 0.00 0.00 0.00 57 1015.8
20260506205014 42 344 3.5 11.3 0.00 0.00 0.00 57 1015.7
20260506204535 42 284 4.3 11.3 0.00 0.00 0.00 56 1015.8
20260506204014 42 250 6.1 11.3 0.00 0.00 0.00 55 1015.8
20260506203513 42 256 5.2 9.6 0.00 0.00 0.00 56 1015.8
20260506203038 42 312 2.6 10.4 0.00 0.00 0.00 56 1015.8
20260506202513 42 286 4.3 10.4 0.00 0.00 0.00 57 1015.9
20260506202014 42 316 5.2 10.4 0.00 0.00 0.00 58 1015.8
20260506201538 42 288 5.2 11.3 0.00 0.00 0.00 56 1015.8
20260506201013 42 289 6.1 11.3 0.00 0.00 0.00 56 1015.8
20260506200515 42 321 3.5 7.8 0.00 0.00 0.00 56 1015.8
20260506200038 42 328 4.3 11.3 0.00 0.00 0.00 56 1015.8
20260506195520 42 292 4.3 11.3 0.00 0.00 0.00 56 1015.8
20260506195014 42 279 5.2 11.3 0.00 0.00 0.00 55 1015.8
20260506194530 42 271 6.1 11.3 0.00 0.00 0.00 56 1015.8
20260506194018 42 296 3.5 11.3 0.00 0.00 0.00 57 1015.8
20260506193514 41 264 5.2 11.3 0.00 0.00 0.00 56 1015.8
20260506193032 41 312 6.1 11.3 0.00 0.00 0.00 56 1015.9
20260506192513 41 318 6.1 11.3 0.00 0.00 0.00 57 1015.8
20260506192019 41 281 4.3 10.4 0.00 0.00 0.00 55 1015.9
20260506191535 41 300 3.5 12.2 0.00 0.00 0.00 58 1015.9
20260506191016 41 272 6.1 12.2 0.00 0.00 0.00 57 1015.9
20260506190514 41 296 4.3 11.3 0.00 0.00 0.00 58 1015.9
20260506190038 41 271 5.2 13.0 0.00 0.00 0.00 57 1015.9